This is the latest recevied weather packets stored in our database for station/object KB3FKJ. If no packets are shown the sender has not sent any weather packets the latest 10 day(s).
| Time | Temp. | Humidity | Pressure | Rain* | Wind** | Luminosity | Snow |
|---|---|---|---|---|---|---|---|
| 1778084303 | 15.56° C | 94% | 1006.5 hPa | 0 mm | - | 190 W/m² | - |
| 1778084000 | 15° C | 94% | 1006.5 hPa | 0 mm | - | 199 W/m² | - |
| 1778083692 | 15° C | 94% | 1006.5 hPa | 0 mm | - | 224 W/m² | - |
| 1778083389 | 15° C | 95% | 1006.4 hPa | 0 mm | - | 237 W/m² | - |
| 1778083088 | 14.44° C | 95% | 1006.2 hPa | 0 mm | - | 201 W/m² | - |
| 1778082783 | 13.89° C | 95% | 1006.5 hPa | 0 mm | - | 165 W/m² | - |
| 1778081655 | 13.89° C | 94% | 1006.5 hPa | 0 mm | - | 56 W/m² | - |
| 1778081353 | 13.89° C | 93% | 1006.4 hPa | 0 mm | - | 55 W/m² | - |
| 1778081050 | 13.89° C | 93% | 1006.2 hPa | 0 mm | - | 61 W/m² | - |
| 1778080748 | 13.89° C | 93% | 1006.3 hPa | 0 mm | - | 52 W/m² | - |
| 1778080445 | 13.89° C | 92% | 1006.3 hPa | 0 mm | - | 39 W/m² | - |
| 1778080143 | 13.89° C | 93% | 1006.3 hPa | 0 mm | - | 39 W/m² | - |
| 1778079838 | 13.89° C | 93% | 1006.3 hPa | 0 mm | - | 31 W/m² | - |
| 1778079535 | 13.89° C | 93% | 1006.2 hPa | 0 mm | - | 36 W/m² | - |
| 1778079231 | 13.89° C | 93% | 1006.1 hPa | 0 mm | - | 34 W/m² | - |
| 1778078929 | 13.89° C | 93% | 1006.1 hPa | 0 mm | - | 44 W/m² | - |
| 1778078625 | 13.89° C | 93% | 1005.8 hPa | 0 mm | - | 36 W/m² | - |
| 1778078324 | 13.89° C | 93% | 1006 hPa | 0 mm | - | 35 W/m² | - |
| 1778078021 | 13.89° C | 93% | 1006.1 hPa | 0 mm | - | 54 W/m² | - |
| 1778077719 | 13.89° C | 93% | 1006.1 hPa | 0 mm | - | 38 W/m² | - |
| 1778077417 | 13.89° C | 93% | 1005.9 hPa | 0 mm | - | 55 W/m² | - |
| 1778077115 | 13.33° C | 93% | 1006 hPa | 0 mm | - | 47 W/m² | - |
| 1778076813 | 13.33° C | 93% | 1006 hPa | 0 mm | - | 34 W/m² | - |
| 1778076511 | 13.33° C | 93% | 1005.9 hPa | 0 mm | - | 40 W/m² | - |
| 1778076207 | 13.33° C | 93% | 1005.9 hPa | 0 mm | - | 44 W/m² | - |
* Rain latest hour (hover to see other rain measurements)
** Current wind speed in m/s (hover to see current wind gust speed)